• In Czech Republic
  • List of Countries
  • For 7 days
  • Water Temperature
  • Satellite Maps
  • Weather Map
  • Weather Widgets
  • user-avatar
    Login

    Hourly Weather Welwyn Garden City

    Today, 20 November, Monday

    Time Temperature Precipitation Wind Pressure Humidity
    00:00 +4°C° 0 mm 3 mps 758 mmHg 89%
    01:00 +4°C° 0 mm 3 mps 757 mmHg 88%
    02:00 +5°C° 0 mm 4 mps 757 mmHg 88%
    03:00 +6°C° 0 mm 4 mps 756 mmHg 88%
    04:00 +6°C° 0 mm 5 mps 755 mmHg 89%
    05:00 +7°C° 0 mm 5 mps 755 mmHg 91%
    06:00 +7°C° 0 mm 5 mps 754 mmHg 93%
    07:00 +8°C° 0 mm 6 mps 754 mmHg 91%
    08:00 +8°C° 0 mm 6 mps 753 mmHg 89%
    09:00 +9°C° 0 mm 7 mps 753 mmHg 87%
    10:00 +9°C° 0.1 mm 7 mps 753 mmHg 86%
    11:00 +10°C° 0.1 mm 7 mps 753 mmHg 85%
    12:00 +11°C° 0.1 mm 8 mps 753 mmHg 84%
    13:00 +11°C° 0.1 mm 7 mps 752 mmHg 85%
    14:00 +11°C° 0.1 mm 7 mps 752 mmHg 86%
    15:00 +11°C° 0.1 mm 7 mps 752 mmHg 87%
    16:00 +11°C° 0.2 mm 7 mps 751 mmHg 88%
    17:00 +11°C° 0.2 mm 7 mps 751 mmHg 89%
    18:00 +11°C° 0.2 mm 6 mps 751 mmHg 90%
    19:00 +11°C° 0.1 mm 6 mps 751 mmHg 90%
    20:00 +11°C° 0.1 mm 6 mps 751 mmHg 91%
    21:00 +12°C° 0.1 mm 5 mps 751 mmHg 92%
    22:00 +11°C° 0.4 mm 6 mps 751 mmHg 92%
    23:00 +11°C° 0.4 mm 6 mps 751 mmHg 92%

    Tomorrow, 21 November, Tuesday

    Time Temperature Precipitation Wind Pressure Humidity
    00:00 +11°C° 0.4 mm 6 mps 751 mmHg 92%
    01:00 +11°C° 0.1 mm 6 mps 751 mmHg 91%
    02:00 +11°C° 0.1 mm 6 mps 751 mmHg 91%
    03:00 +11°C° 0.1 mm 6 mps 751 mmHg 91%
    04:00 +12°C° 0 mm 5 mps 751 mmHg 91%
    05:00 +10°C° 0 mm 5 mps 751 mmHg 91%
    06:00 +10°C° 0 mm 5 mps 750 mmHg 91%
    07:00 +10°C° 0 mm 5 mps 750 mmHg 91%
    08:00 +10°C° 0 mm 5 mps 750 mmHg 91%
    09:00 +10°C° 0 mm 5 mps 750 mmHg 91%
    10:00 +10°C° 0 mm 5 mps 750 mmHg 88%
    11:00 +11°C° 0 mm 6 mps 750 mmHg 85%
    12:00 +11°C° 0 mm 6 mps 749 mmHg 82%
    13:00 +11°C° 0 mm 6 mps 749 mmHg 83%
    14:00 +11°C° 0 mm 6 mps 748 mmHg 83%
    15:00 +11°C° 0 mm 7 mps 748 mmHg 83%
    16:00 +11°C° 0 mm 7 mps 748 mmHg 82%
    17:00 +11°C° 0 mm 7 mps 747 mmHg 82%
    18:00 +11°C° 0 mm 7 mps 747 mmHg 81%
    19:00 +11°C° 0 mm 7 mps 746 mmHg 81%
    20:00 +11°C° 0 mm 8 mps 746 mmHg 81%
    21:00 +11°C° 0 mm 8 mps 746 mmHg 81%
    22:00 +11°C° 0 mm 8 mps 745 mmHg 81%
    23:00 +11°C° 0 mm 8 mps 745 mmHg 81%

    Day after tomorrow, 22 November, Wednesday

    Time Temperature Precipitation Wind Pressure Humidity
    00:00 +11°C° 0 mm 8 mps 745 mmHg 80%
    01:00 +11°C° 0 mm 8 mps 744 mmHg 81%
    02:00 +11°C° 0 mm 8 mps 744 mmHg 82%
    03:00 +11°C° 0 mm 8 mps 744 mmHg 82%
    04:00 +11°C° 0 mm 8 mps 744 mmHg 82%
    05:00 +12°C° 0 mm 8 mps 743 mmHg 82%
    06:00 +12°C° 0 mm 7 mps 743 mmHg 82%
    07:00 +12°C° 0 mm 8 mps 743 mmHg 80%
    08:00 +12°C° 0 mm 8 mps 743 mmHg 79%
    09:00 +12°C° 0 mm 8 mps 743 mmHg 78%
    10:00 +12°C° 0 mm 8 mps 743 mmHg 71%
    11:00 +13°C° 0 mm 9 mps 742 mmHg 64%
    12:00 +15°C° 0 mm 9 mps 742 mmHg 57%
    13:00 +13°C° 0 mm 9 mps 741 mmHg 56%
    14:00 +13°C° 0 mm 9 mps 740 mmHg 56%
    15:00 +13°C° 0 mm 9 mps 739 mmHg 55%
    16:00 +13°C° 0 mm 9 mps 739 mmHg 57%
    17:00 +13°C° 0 mm 9 mps 738 mmHg 58%
    18:00 +13°C° 0 mm 10 mps 738 mmHg 60%
    19:00 +13°C° 0.1 mm 10 mps 737 mmHg 65%
    20:00 +13°C° 0.1 mm 10 mps 737 mmHg 71%
    21:00 +13°C° 0.1 mm 10 mps 737 mmHg 77%
    22:00 +13°C° 0.5 mm 10 mps 736 mmHg 77%
    23:00 +13°C° 0.5 mm 10 mps 736 mmHg 77%

    23 November, Thursday

    Time Temperature Precipitation Wind Pressure Humidity
    00:00 +13°C° 0.5 mm 10 mps 736 mmHg 77%
    01:00 +12°C° 0.3 mm 10 mps 736 mmHg 79%
    02:00 +12°C° 0.3 mm 9 mps 737 mmHg 80%
    03:00 +12°C° 0.3 mm 9 mps 737 mmHg 82%
    04:00 +12°C° 0 mm 8 mps 738 mmHg 81%
    05:00 +12°C° 0 mm 8 mps 739 mmHg 80%
    06:00 +12°C° 0 mm 8 mps 740 mmHg 80%
    07:00 +12°C° 0 mm 8 mps 741 mmHg 80%
    08:00 +12°C° 0 mm 7 mps 742 mmHg 81%
    09:00 +12°C° 0 mm 7 mps 743 mmHg 81%
    10:00 +12°C° 0 mm 7 mps 743 mmHg 80%
    11:00 +13°C° 0 mm 8 mps 744 mmHg 78%
    12:00 +13°C° 0 mm 8 mps 745 mmHg 77%
    13:00 +13°C° 0 mm 8 mps 745 mmHg 77%
    14:00 +13°C° 0 mm 8 mps 745 mmHg 78%
    15:00 +13°C° 0 mm 8 mps 745 mmHg 78%
    16:00 +13°C° 0.3 mm 8 mps 744 mmHg 80%
    17:00 +13°C° 0.3 mm 8 mps 744 mmHg 81%
    18:00 +13°C° 0.3 mm 8 mps 744 mmHg 82%
    19:00 +13°C° 0.6 mm 8 mps 744 mmHg 82%
    20:00 +15°C° 0.6 mm 9 mps 744 mmHg 82%
    21:00 +15°C° 0.6 mm 9 mps 744 mmHg 82%
    22:00 +14°C° 0.2 mm 10 mps 744 mmHg 81%
    23:00 +14°C° 0.2 mm 10 mps 743 mmHg 81%

    24 November, Friday

    Time Temperature Precipitation Wind Pressure Humidity
    00:00 +14°C° 0.2 mm 11 mps 742 mmHg 80%
    01:00 +13°C° 1.1 mm 10 mps 742 mmHg 81%
    02:00 +13°C° 1.1 mm 9 mps 742 mmHg 82%
    03:00 +13°C° 1.1 mm 8 mps 742 mmHg 83%
    04:00 +12°C° 0.6 mm 7 mps 742 mmHg 83%
    05:00 +12°C° 0.6 mm 7 mps 742 mmHg 84%
    06:00 +13°C° 0.6 mm 6 mps 742 mmHg 84%
    07:00 +12°C° 0.1 mm 5 mps 743 mmHg 84%
    08:00 +12°C° 0.1 mm 5 mps 743 mmHg 83%
    09:00 +12°C° 0.1 mm 5 mps 744 mmHg 82%
    10:00 +12°C° 0.4 mm 4 mps 744 mmHg 83%
    11:00 +11°C° 0.4 mm 4 mps 744 mmHg 83%
    12:00 +11°C° 0.4 mm 3 mps 744 mmHg 83%
    13:00 +11°C° 1 mm 3 mps 744 mmHg 84%
    14:00 +10°C° 1 mm 3 mps 744 mmHg 84%
    15:00 +10°C° 1 mm 3 mps 744 mmHg 85%
    16:00 +10°C° 0.3 mm 2 mps 745 mmHg 84%
    17:00 +9°C° 0.3 mm 2 mps 745 mmHg 83%
    18:00 +9°C° 0.3 mm 2 mps 745 mmHg 82%
    19:00 +10°C° 0.2 mm 1 mps 745 mmHg 83%
    20:00 +10°C° 0.2 mm 1 mps 746 mmHg 84%
    21:00 +9°C° 0.2 mm 1 mps 746 mmHg 84%
    22:00 +9°C° 0.3 mm 1 mps 746 mmHg 85%
    23:00 +9°C° 0.3 mm 1 mps 746 mmHg 85%

    25 November, Saturday

    Time Temperature Precipitation Wind Pressure Humidity
    00:00 +9°C° 0.3 mm 1 mps 746 mmHg 85%
    01:00 +9°C° 0.9 mm 1 mps 746 mmHg 86%
    02:00 +7°C° 0.9 mm 2 mps 745 mmHg 87%
    03:00 +7°C° 0.9 mm 3 mps 745 mmHg 87%
    04:00 +7°C° 1.9 mm 3 mps 745 mmHg 88%
    05:00 +5°C° 1.9 mm 4 mps 744 mmHg 88%
    06:00 +5°C° 1.9 mm 5 mps 744 mmHg 89%
    07:00 +5°C° 1.9 mm 5 mps 744 mmHg 88%
    08:00 +5°C° 1.9 mm 5 mps 745 mmHg 87%
    09:00 +5°C° 1.9 mm 5 mps 745 mmHg 85%
    10:00 +4°C° 1.1 mm 6 mps 746 mmHg 83%
    11:00 +4°C° 1.1 mm 6 mps 746 mmHg 81%
    12:00 +4°C° 1.1 mm 6 mps 747 mmHg 79%
    13:00 +3°C° 0.4 mm 6 mps 748 mmHg 77%
    14:00 +3°C° 0.4 mm 5 mps 749 mmHg 76%
    15:00 +4°C° 0.4 mm 4 mps 750 mmHg 74%
    16:00 +4°C° 0.1 mm 4 mps 751 mmHg 74%
    17:00 +3°C° 0.1 mm 3 mps 752 mmHg 74%
    18:00 +3°C° 0.1 mm 3 mps 753 mmHg 74%
    19:00 +4°C° 0 mm 2 mps 754 mmHg 74%
    20:00 +4°C° 0 mm 2 mps 755 mmHg 73%
    21:00 +4°C° 0 mm 2 mps 755 mmHg 73%
    22:00 +3°C° 0 mm 2 mps 756 mmHg 74%
    23:00 +3°C° 0 mm 2 mps 756 mmHg 74%
    Show more